Change the Weather History Date:

Tuesday, February 19, 2013

  Actual Average Record
Temperature  
Mean Temperature 20 °F 18 °F  
Max Temperature 33 °F 27 °F 46 °F (1994)
Min Temperature 7 °F 10 °F -23 °F (1910)
Degree Days  
Heating Degree Days 45 47  
Month to date heating degree days 966 918  
Since 1 July heating degree days 5349 5718  
Moisture  
Dew Point 22 °F    
Average Humidity 77    
Maximum Humidity 92    
Minimum Humidity 61    
Precipitation  
Precipitation 1.10 in 0.05 in 1.10 in (2013)
Month to date precipitation 2.44 0.91  
Year to date precipitation 5.73 3.10  
Snow  
Snow 9.50 in 0.50 in 9.50 in (2013)
Month to date snowfall 26.8 13.5  
Since 1 July snowfall 116.2 95.1  
Snow Depth 21.00 in    
Sea Level Pressure  
Sea Level Pressure 29.35 in    
Wind  
Wind Speed 14 mph (NNE)    
Max Wind Speed 28 mph    
Max Gust Speed 38 mph    
Visibility 2 miles    
Events Fog , Snow    
T = Trace of Precipitation, MM = Missing Value Source: NWS Daily Summary

Daily Weather History Graph

Daily Weather History Graph

Search for Another Location

Airport or City:

Trip Planner

Search our weather history database for the weather conditions in past years. The results will help you decide how hot, cold, wet, or windy it might be!

Date:

Astronomy

Feb. 19, 2013 Rise Set
Actual Time 7:33 AM EST 6:09 PM EST
Civil Twilight 7:03 AM EST 6:39 PM EST
Nautical Twilight 6:28 AM EST 7:15 PM EST
Astronomical Twilight 5:53 AM EST 7:50 PM EST
Moon 12:29 PM EST (2/19) 3:15 AM EST (2/19)
Length of Visible Light 11h 36m
Length of Day
10h 35m
Waxing Gibbous, 67% of the Moon is Illuminated
Feb 19
Waxing Gibbous
Feb 25
Full
Mar 4
Last Quarter
Mar 11
New
Mar 19
First Quarter

Hourly Weather History & Observations

Time (EST) Temp. Windchill Dew Point Humidity Pressure Visibility Wind Dir Wind Speed Gust Speed Precip Events Conditions
12:05 AM 30.9 °F 22.8 °F 28.0 °F 89% 29.49 in 2.5 mi ESE 9.2 mph - 0.01 in Snow Light Snow
12:42 AM 30.9 °F 22.8 °F 28.9 °F 92% 29.45 in 1.8 mi East 9.2 mph - 0.04 in Snow Light Snow
12:55 AM 32.0 °F 24.2 °F 28.9 °F 88% 29.47 in 1.5 mi ESE 9.2 mph 19.6 mph 0.06 in Snow Light Snow
1:06 AM 32.0 °F 23.6 °F 28.9 °F 88% 29.44 in 1.2 mi East 10.4 mph 17.3 mph 0.01 in Snow Light Snow
1:28 AM 32.0 °F 23.0 °F 28.9 °F 88% 29.43 in 2.0 mi ESE 11.5 mph 20.7 mph 0.03 in Snow Light Snow
1:36 AM 32.0 °F 23.0 °F 28.9 °F 88% 29.42 in 1.2 mi ESE 11.5 mph 20.7 mph 0.04 in Snow Light Snow
1:55 AM 32.0 °F 23.6 °F 30.0 °F 92% 29.42 in 1.8 mi East 10.4 mph 19.6 mph 0.06 in Snow Light Snow
2:07 AM 32.0 °F 23.6 °F 30.0 °F 92% 29.38 in 1.2 mi East 10.4 mph - 0.01 in Snow Light Snow
2:19 AM 32.0 °F 22.5 °F 30.0 °F 92% 29.38 in 0.8 mi East 12.7 mph 21.9 mph 0.03 in Snow Light Snow
2:33 AM 32.0 °F 23.6 °F 30.0 °F 92% 29.37 in 1.2 mi East 10.4 mph 19.6 mph 0.05 in Snow Light Snow
2:55 AM 32.0 °F 23.0 °F 30.0 °F 92% 29.37 in 1.8 mi East 11.5 mph 18.4 mph 0.07 in Snow Light Snow
3:35 AM 32.0 °F 23.0 °F 28.9 °F 88% 29.31 in 0.8 mi East 11.5 mph 19.6 mph 0.05 in Snow Light Snow
3:52 AM 32.0 °F 23.6 °F 30.2 °F 93% 29.29 in 1.0 mi East 10.4 mph 18.4 mph 0.08 in Snow Light Snow
3:55 AM 32.0 °F 23.6 °F 30.0 °F 92% 29.31 in 1.0 mi East 10.4 mph 18.4 mph 0.09 in Snow Light Snow
4:19 AM 32.0 °F 24.2 °F 30.0 °F 92% 29.27 in 0.8 mi East 9.2 mph - 0.03 in Snow Light Snow
4:55 AM 33.1 °F 24.9 °F 30.9 °F 92% 29.25 in 0.8 mi East 10.4 mph 19.6 mph 0.10 in Snow Light Snow
5:55 AM 33.1 °F 25.5 °F 30.9 °F 92% 29.21 in 0.5 mi East 9.2 mph - 0.13 in Fog , Snow Snow
6:42 AM 33.1 °F 24.9 °F 30.9 °F 92% 29.17 in 1.0 mi East 10.4 mph - 0.11 in Snow Light Snow
6:55 AM 33.1 °F 26.1 °F 30.9 °F 92% 29.18 in 1.0 mi East 8.1 mph - 0.13 in Snow Light Snow
7:22 AM 33.1 °F 25.5 °F 30.9 °F 92% 29.14 in 0.8 mi East 9.2 mph - 0.04 in Snow Light Snow
7:31 AM 33.1 °F 25.5 °F 30.9 °F 92% 29.14 in 1.0 mi East 9.2 mph - 0.06 in Snow Light Snow
7:55 AM 33.1 °F 26.1 °F 30.9 °F 92% 29.15 in 0.8 mi East 8.1 mph - 0.09 in Snow Light Snow
8:55 AM 33.1 °F 26.9 °F 30.9 °F 92% 29.13 in 0.5 mi East 6.9 mph - 0.07 in Fog , Snow Snow
9:55 AM 33.1 °F 28.7 °F 30.9 °F 92% 29.13 in 0.2 mi East 4.6 mph - 0.10 in Fog , Snow Heavy Snow
10:52 AM 33.8 °F 27.0 °F 30.2 °F 87% 29.12 in 1.2 mi SSW 8.1 mph - 0.06 in Snow Light Snow
10:55 AM 33.1 °F 26.9 °F 30.9 °F 92% 29.14 in 1.5 mi SW 6.9 mph - 0.06 in Snow Light Snow
11:08 AM 33.1 °F 25.5 °F 30.9 °F 92% 29.12 in 3.0 mi West 9.2 mph - 0.01 in Snow Light Snow
11:51 AM 32.0 °F 22.1 °F 28.4 °F 87% 29.14 in 2.0 mi WSW 13.8 mph 20.7 mph 0.02 in Snow Light Snow
11:55 AM 32.0 °F 21.6 °F 28.9 °F 88% 29.16 in 2.0 mi SW 15.0 mph - 0.02 in Snow Light Snow
12:11 PM 30.9 °F 19.8 °F 28.0 °F 89% 29.15 in 1.0 mi WSW 16.1 mph - 0.00 in Snow Light Snow
12:19 PM 30.9 °F 20.7 °F 28.0 °F 89% 29.15 in 0.8 mi WSW 13.8 mph - 0.01 in Snow Light Snow
12:55 PM 30.0 °F 18.3 °F 27.0 °F 88% 29.19 in 0.5 mi West 17.3 mph 23.0 mph 0.03 in Fog , Snow Snow
1:08 PM 28.9 °F 17.3 °F 26.1 °F 89% 29.18 in 0.5 mi West 16.1 mph 24.2 mph 0.01 in Fog , Snow Snow
1:35 PM 28.0 °F 16.1 °F 24.1 °F 85% 29.21 in 0.5 mi WNW 16.1 mph 27.6 mph 0.01 in Fog , Snow Snow
1:51 PM 26.6 °F 15.2 °F 23.0 °F 86% 29.22 in 0.8 mi WNW 13.8 mph 25.3 mph 0.01 in Snow Light Snow
1:55 PM 27.0 °F 15.2 °F 23.0 °F 85% 29.24 in 0.8 mi WNW 15.0 mph 26.5 mph 0.01 in Snow Light Snow
2:23 PM 26.1 °F 14.0 °F 21.9 °F 84% 29.26 in 0.8 mi WNW 15.0 mph 23.0 mph 0.01 in Snow Light Snow
2:55 PM 25.0 °F 11.7 °F 21.0 °F 85% 29.31 in 0.5 mi WNW 17.3 mph 26.5 mph 0.02 in Fog , Snow Snow
3:38 PM 24.1 °F 9.0 °F 19.9 °F 84% 29.33 in 0.2 mi NW 21.9 mph 33.4 mph 0.02 in Fog , Snow Snow
3:55 PM 21.9 °F 4.8 °F 18.0 °F 85% 29.38 in 0.2 mi NW 26.5 mph 36.8 mph 0.02 in Fog , Snow Snow
4:55 PM 19.0 °F 4.5 °F 14.0 °F 81% 29.45 in 0.2 mi NW 16.1 mph 33.4 mph 0.03 in Snow Heavy Snow
5:47 PM 16.0 °F -1.3 °F 10.0 °F 77% 29.49 in 0.5 mi NW 20.7 mph 34.5 mph 0.01 in Snow Snow
5:55 PM 15.1 °F -2.0 °F 9.0 °F 77% 29.52 in 0.8 mi NW 19.6 mph 33.4 mph 0.01 in Snow Light Snow
6:13 PM 14.0 °F -4.7 °F 9.0 °F 80% 29.52 in 1.5 mi NW 23.0 mph 33.4 mph 0.00 in Snow Light Snow
6:32 PM 14.0 °F -2.5 °F 7.0 °F 74% 29.54 in 2.0 mi NW 17.3 mph 33.4 mph 0.00 in Snow Light Snow
7:22 PM 12.9 °F -5.3 °F 3.9 °F 67% 29.59 in 3.0 mi NNW 20.7 mph 33.4 mph 0.00 in Snow Light Snow
7:55 PM 12.0 °F -6.0 °F 1.9 °F 64% 29.65 in 4.0 mi NNW 19.6 mph 31.1 mph 0.00 in   Overcast
8:55 PM 10.0 °F -6.5 °F 3.0 °F 73% 29.69 in 2.5 mi NNW 15.0 mph 23.0 mph 0.00 in Snow Light Snow
9:13 PM 10.0 °F -7.1 °F 1.0 °F 67% 29.67 in 3.0 mi NNW 16.1 mph 27.6 mph 0.00 in Snow Light Snow
9:55 PM 9.0 °F -7.9 °F -0.0 °F 67% 29.73 in 5.0 mi NNW 15.0 mph 26.5 mph 0.00 in Snow Light Snow
10:55 PM 8.1 °F -10.2 °F -2.0 °F 64% 29.76 in 10.0 mi NNW 17.3 mph 25.3 mph 0.00 in   Overcast
11:55 PM 7.0 °F -10.4 °F -2.0 °F 67% 29.79 in 8.0 mi NNW 15.0 mph 25.3 mph 0.00 in   Overcast